Location: Gwatt
(46.7204°N, 7.6223°E)
Time: 16:57:48
(UTC+00:00)

deb Explorer IX - Pass Details

Date: 26 January 2021
Orbit: 537 x 1102 km, 38.8° (Epoch: 04 March)

Event Time Altitude Azimuth Distance (km) Brightness Sun altitude
Rises 19:05:22 0° 261° (W) 3,622 ? -27.5°
Reaches altitude 10° 19:08:21 10° 254° (WSW) 2,583 ? -28.0°
Enters shadow 19:13:47 35° 192° (SSW) 1,276 ? -29.0°
Maximum altitude 19:13:51 35° 190° (S) 1,273 - -29.0°
Drops below altitude 10° 19:18:36 10° 125° (SE) 2,219 - -29.8°
Sets 19:21:00 0° 116° (ESE) 3,050 - -30.2°
